DW0350 Weather Reports


Display with metric or nautical units.
time (UTC)temp
F
wind
direction
speed
MPH
gust
MPH
rain 1hr
in
rain 24hr
in
rain mn
in
humidity
%
barometer
mb
20260902211509 62 274 0.0 0.0 0.00 0.00 0.00 85 1020.9
20260902210022 64 274 0.0 0.0 0.00 0.00 0.00 83 1020.9
20260902204510 65 274 0.0 0.0 0.00 0.00 0.00 82 1020.9
20260902203007 66 274 0.0 0.0 0.00 0.00 0.00 81 1021.0
20260902201510 66 274 0.0 0.0 0.00 0.00 0.00 80 1021.0
20260902200009 67 274 0.0 0.0 0.00 0.00 0.00 78 1020.9
20260902194506 67 274 0.0 0.0 0.00 0.00 0.00 76 1020.9
20260902193005 66 274 0.0 0.0 0.00 0.00 0.00 76 1020.7
20260902191505 66 274 0.0 0.0 0.00 0.00 0.00 75 1020.6
20260902190008 68 274 0.0 0.0 0.00 0.00 0.00 73 1020.5
20260902184503 69 274 0.0 0.0 0.00 0.00 0.00 70 1020.2
20260902183003 70 274 0.0 0.0 0.00 0.00 0.00 70 1020.1
20260902181503 71 274 0.0 0.0 0.00 0.00 0.00 66 1020.1
20260902180004 73 274 0.0 0.0 0.00 0.00 0.00 61 1020.1
20260902174501 75 211 0.0 0.0 0.00 0.00 0.00 57 1020.1
20260902173001 75 256 0.0 0.0 0.00 0.00 0.00 57 1020.2
20260902171501 75 217 0.0 0.0 0.00 0.00 0.00 56 1020.3
20260902170108 75 251 0.0 0.0 0.00 0.00 0.00 59 1020.1
20260902164559 76 246 0.0 0.0 0.00 0.00 0.00 56 1020.2
20260902163058 76 249 0.0 0.0 0.00 0.00 0.00 56 1020.1
20260902161556 77 207 0.0 0.0 0.00 0.00 0.00 54 1020.3
20260902160055 76 227 0.0 0.0 0.00 0.00 0.00 53 1020.4
20260902154553 76 231 0.0 0.0 0.00 0.00 0.00 54 1020.6
20260902153053 77 198 0.0 0.0 0.00 0.00 0.00 54 1020.5
20260902151553 76 257 0.0 0.0 0.00 0.00 0.00 57 1020.7
20260902150049 76 244 0.0 0.0 0.00 0.00 0.00 56 1020.9
20260902144600 75 169 0.0 0.0 0.00 0.00 0.00 55 1020.9
20260902143049 76 210 0.0 0.0 0.00 0.00 0.00 55 1021.0
20260902141546 76 171 0.0 0.0 0.00 0.00 0.00 53 1021.0
20260902140043 76 203 0.0 0.0 0.00 0.00 0.00 54 1021.4
20260902134542 75 225 0.0 0.0 0.00 0.00 0.00 57 1021.4
20260902133041 75 249 0.0 0.0 0.00 0.00 0.00 54 1021.4
20260902131541 75 216 0.0 0.0 0.00 0.00 0.00 55 1021.5
20260902130039 74 249 0.0 0.0 0.00 0.00 0.00 55 1021.3
20260902124540 74 198 0.0 0.0 0.00 0.00 0.00 58 1021.4
20260902123035 73 281 0.0 0.0 0.00 0.00 0.00 59 1021.7
20260902121535 73 193 0.0 0.0 0.00 0.00 0.00 59 1021.7
20260902120033 72 194 0.0 0.0 0.00 0.00 0.00 59 1021.8
20260902114534 72 234 0.0 0.0 0.00 0.00 0.00 57 1021.9
20260902113031 72 227 0.0 0.0 0.00 0.00 0.00 60 1022.1
20260902111531 72 265 0.0 0.0 0.00 0.00 0.00 61 1022.2
20260902110029 72 196 0.0 0.0 0.00 0.00 0.00 59 1022.2
20260902104538 71 237 0.0 0.0 0.00 0.00 0.00 59 1022.4
20260902103027 70 281 0.0 0.0 0.00 0.00 0.00 60 1022.5
20260902101534 71 165 0.0 0.0 0.00 0.00 0.00 59 1022.3
20260902100024 70 246 0.0 0.0 0.00 0.00 0.00 61 1022.4
20260902094521 68 163 0.0 0.0 0.00 0.00 0.00 64 1022.5
20260902093032 68 211 0.0 0.0 0.00 0.00 0.00 64 1022.5
20260902091522 68 223 0.0 0.0 0.00 0.00 0.00 67 1022.5
20260902090017 66 195 0.0 0.0 0.00 0.00 0.00 71 1022.6
20260902084514 66 203 0.0 0.0 0.00 0.00 0.00 74 1022.5
20260902083011 65 188 0.0 0.0 0.00 0.00 0.00 77 1022.3
20260902081508 63 194 0.0 0.0 0.00 0.00 0.00 80 1022.2
20260902080005 62 180 0.0 0.0 0.00 0.00 0.00 82 1022.0
20260902074501 61 178 0.0 0.0 0.00 0.00 0.00 85 1021.9
20260902073058 60 212 0.0 0.0 0.00 0.00 0.00 88 1021.9
20260902071554 58 213 0.0 0.0 0.00 0.00 0.00 90 1021.9
20260902070050 56 213 0.0 0.0 0.00 0.00 0.00 93 1021.9
20260902064605 53 326 0.0 0.0 0.00 0.00 0.00 93 1021.7
20260902063049 53 327 0.0 0.0 0.00 0.00 0.00 93 1021.6
20260902061555 53 327 0.0 0.0 0.00 0.00 0.00 93 1021.6
20260902060048 52 327 0.0 0.0 0.00 0.00 0.00 93 1021.6
20260902054547 50 327 0.0 0.0 0.00 0.00 0.00 93 1021.5
20260902053053 50 327 0.0 0.0 0.00 0.00 0.00 93 1021.4
20260902051550 49 327 0.0 0.0 0.00 0.00 0.00 93 1021.5
20260902050046 49 327 0.0 0.0 0.00 0.00 0.00 93 1021.4
20260902044545 49 327 0.0 0.0 0.00 0.00 0.00 93 1021.3
20260902043043 49 327 0.0 0.0 0.00 0.00 0.00 93 1021.5
20260902041543 49 327 0.0 0.0 0.00 0.00 0.00 93 1021.5
20260902040043 49 327 0.0 0.0 0.00 0.00 0.00 93 1021.5
20260902034554 49 327 0.0 0.0 0.00 0.00 0.00 93 1021.6
20260902033054 50 326 0.0 0.0 0.00 0.00 0.00 93 1021.5
20260902031538 50 327 0.0 0.0 0.00 0.00 0.00 93 1021.5
20260902030037 50 327 0.0 0.0 0.00 0.00 0.00 92 1021.5
20260902024543 50 327 0.0 0.0 0.00 0.00 0.00 92 1021.5
20260902023034 51 327 0.0 0.0 0.00 0.00 0.00 92 1021.7
20260902021533 51 327 0.0 0.0 0.00 0.00 0.00 92 1021.6
20260902020038 51 327 0.0 0.0 0.00 0.00 0.00 92 1021.7
20260902014534 51 327 0.0 0.0 0.00 0.00 0.00 92 1021.6
20260902013029 52 327 0.0 0.0 0.00 0.00 0.00 92 1021.6
20260902011529 52 327 0.0 0.0 0.00 0.00 0.00 92 1021.7
20260902010027 52 327 0.0 0.0 0.00 0.00 0.00 92 1021.7
20260902004526 52 327 0.0 0.0 0.00 0.00 0.00 92 1021.7
20260902003025 52 326 0.0 0.0 0.00 0.00 0.00 92 1021.6
20260902001623 53 327 0.0 0.0 0.00 0.00 0.00 91 1021.6
20260902000022 53 327 0.0 0.0 0.00 0.00 0.00 91 1021.5
20260901234521 53 327 0.0 0.0 0.00 0.00 0.00 91 1021.7
20260901233028 54 327 0.0 0.0 0.00 0.00 0.00 91 1021.7
20260901231518 54 327 0.0 0.0 0.00 0.00 0.00 91 1021.9
20260901230017 54 326 0.0 0.0 0.00 0.00 0.00 90 1021.8
20260901224530 55 327 0.0 0.0 0.00 0.00 0.00 89 1021.7
20260901223012 55 327 0.0 0.0 0.00 0.00 0.00 89 1021.8
20260901221510 55 327 0.0 0.0 0.00 0.00 0.00 88 1021.9
20260901220007 56 327 0.0 0.0 0.00 0.00 0.00 88 1022.0
20260901214611 56 327 0.0 0.0 0.00 0.00 0.00 87 1021.9
20260901213006 56 327 0.0 0.0 0.00 0.00 0.00 87 1022.0